Total_Precipitation_Accumulation
0.01 0.04 0.02 0.02 0.03 0.05 0.08 0.16 0.29 0.30 0.29 0.39 0.48 0.66 0.84 0.93 1.18 1.52 1.74 1.71 1.67 1.99 2.46 2.83 3.14 3.22 3.53 3.73 3.91 3.94 4.20 4.66 5.03 4.87 4.58 4.47 4.29 4.07 3.82 3.56 3.51 3.58 3.56 3.74
0.02 0.02 0.02 0.02 0.02 0.04 0.06 0.12 0.24 0.31 0.30 0.44 0.61 0.81 0.93 1.13 1.41 1.56 1.48 1.46 1.60 2.00 2.50 2.88 3.14 3.24 3.49 3.77 4.20 4.35 4.58 4.98 5.15 5.01 4.90 4.81 4.74 4.33 4.20 4.05 3.93 3.54 3.37 3.50
0.02 0.02 0.02 0.02 0.03 0.04 0.06 0.13 0.21 0.27 0.37 0.55 0.72 1.16 1.26 1.39 1.55 1.58 1.50 1.69 1.70 1.76 2.18 2.46 2.58 2.73 2.90 3.06 3.33 3.64 4.19 4.73 4.95 5.03 4.95 4.92 4.98 4.53 4.28 4.17 4.00 3.62 3.36 3.26
0.02 0.02 0.02 0.02 0.03 0.03 0.08 0.11 0.13 0.18 0.34 0.65 0.80 1.51 1.65 1.76 1.92 1.78 1.67 1.61 1.60 1.81 2.12 2.13 1.96 2.09 2.34 2.33 2.65 3.10 3.62 4.01 4.26 4.35 4.35 4.41 4.41 4.35 4.27 4.18 3.79 3.61 3.38 3.26
0.02 0.03 0.03 0.05 0.04 0.04 0.07 0.10 0.14 0.20 0.35 0.64 0.71 1.15 1.72 1.99 2.18 1.79 1.64 1.50 1.57 1.78 1.81 1.77 1.79 1.88 2.02 2.17 2.49 2.82 3.19 3.52 3.70 3.80 3.90 4.02 3.92 3.97 3.88 3.78 3.61 3.42 3.32 3.19
0.03 0.05 0.05 0.04 0.05 0.06 0.07 0.14 0.24 0.33 0.56 1.02 0.88 1.00 1.58 1.96 1.77 1.52 1.43 1.23 1.34 1.53 1.62 1.67 1.77 1.89 2.01 2.30 2.64 2.91 3.17 3.43 3.51 3.31 3.23 3.30 3.37 3.45 3.43 3.28 3.13 2.92 2.94 2.89
0.14 0.11 0.09 0.07 0.08 0.10 0.11 0.25 0.75 1.20 1.52 1.42 0.90 1.02 1.66 1.52 1.20 1.11 1.18 1.16 1.16 1.19 1.34 1.46 1.65 1.85 2.07 2.19 2.22 2.64 3.07 3.27 3.18 2.96 2.80 2.76 2.93 3.06 3.02 2.89 2.84 2.78 2.67 2.64
0.29 0.27 0.15 0.11 0.14 0.16 0.16 0.28 0.80 1.13 1.24 1.21 1.00 1.43 1.96 1.50 1.06 0.90 1.00 1.00 0.90 0.83 0.81 0.90 1.09 1.21 1.35 1.39 1.40 1.58 1.87 2.10 2.20 2.14 2.21 2.30 2.38 2.47 2.48 2.69 2.56 2.57 2.50 2.40
0.18 0.17 0.13 0.14 0.19 0.20 0.27 0.31 0.34 0.58 0.81 1.23 1.28 1.49 1.64 1.34 1.03 0.98 1.07 1.01 0.81 0.75 0.71 0.79 0.92 0.97 1.04 1.06 1.11 1.24 1.50 1.78 1.84 1.87 1.96 2.05 2.12 2.20 2.23 2.28 2.25 2.23 2.30 2.24
0.12 0.13 0.14 0.13 0.17 0.21 0.23 0.31 0.48 0.76 1.02 1.21 1.33 1.72 1.93 1.72 1.40 1.22 1.21 1.10 0.83 0.72 0.70 0.78 0.89 0.93 1.03 1.13 1.29 1.42 1.54 1.69 1.72 1.72 1.75 1.72 1.90 1.99 2.04 2.03 1.94 1.97 2.04 2.03
0.09 0.11 0.16 0.21 0.24 0.25 0.26 0.35 0.51 0.70 0.76 1.01 1.45 1.63 1.41 1.33 1.32 1.45 1.35 1.13 0.87 0.72 0.68 0.75 0.88 0.99 1.10 1.20 1.28 1.43 1.55 1.69 1.69 1.62 1.70 1.83 1.96 2.05 1.96 1.88 1.76 1.83 1.94 1.99
0.10 0.13 0.19 0.28 0.24 0.19 0.25 0.37 0.52 0.79 0.83 0.86 1.06 1.28 0.92 0.94 1.05 1.15 1.16 0.95 0.78 0.73 0.72 0.77 0.90 1.01 1.22 1.28 1.30 1.34 1.48 1.65 1.69 1.70 1.82 2.09 2.11 2.09 1.99 1.82 1.75 1.83 1.92 1.95
0.16 0.17 0.30 0.59 0.54 0.30 0.28 0.28 0.38 0.54 0.67 0.76 1.02 1.24 0.86 0.94 1.07 1.07 1.06 0.95 0.87 0.81 0.82 0.91 1.00 0.97 1.13 1.28 1.38 1.45 1.55 1.65 1.81 1.90 2.01 2.21 2.22 2.14 1.93 1.85 1.82 1.87 1.94 2.00
0.14 0.16 0.28 0.68 0.72 0.48 0.35 0.31 0.34 0.47 0.60 0.60 0.63 0.91 0.94 0.93 1.07 1.12 1.14 1.06 0.99 0.88 0.90 1.08 1.20 1.20 1.23 1.27 1.38 1.50 1.59 1.67 1.69 1.74 1.83 1.93 1.92 1.92 1.84 1.86 1.86 1.86 1.89 1.89
0.15 0.19 0.19 0.30 0.41 0.44 0.41 0.34 0.31 0.33 0.36 0.51 0.60 0.82 1.03 1.04 1.09 1.06 1.04 0.98 0.96 0.92 0.91 1.02 1.02 1.06 1.06 1.05 1.13 1.31 1.30 1.37 1.52 1.63 1.69 1.76 1.82 1.86 1.89 1.83 1.73 1.78 1.85 1.81
0.21 0.27 0.25 0.32 0.41 0.45 0.43 0.39 0.34 0.32 0.30 0.38 0.51 0.73 0.81 0.90 0.97 1.05 1.07 1.05 0.98 0.96 1.08 0.98 0.89 0.87 1.01 1.05 1.06 1.19 1.21 1.27 1.42 1.49 1.53 1.72 1.85 1.86 1.83 1.72 1.74 1.80 1.86 1.91
0.34 0.38 0.37 0.41 0.50 0.62 0.64 0.41 0.38 0.40 0.37 0.49 0.77 0.90 0.90 1.07 1.08 1.02 1.03 1.04 0.93 0.90 1.04 1.05 1.03 0.91 0.96 1.09 1.15 1.16 1.23 1.29 1.35 1.41 1.49 1.57 1.67 1.71 1.62 1.53 1.60 1.68 1.78 1.90
0.40 0.57 0.59 0.56 0.74 0.93 0.76 0.45 0.40 0.45 0.45 0.48 0.63 0.74 0.84 1.08 1.13 0.95 0.87 0.88 0.85 0.83 0.86 0.95 1.03 1.07 1.16 1.13 1.25 1.40 1.47 1.43 1.43 1.56 1.66 1.63 1.72 1.88 1.88 1.83 1.84 1.92 1.99 2.00
0.34 0.55 0.64 0.71 0.88 0.89 0.76 0.61 0.56 0.62 0.72 0.57 0.64 0.72 0.81 0.83 0.93 1.01 0.83 0.86 0.88 0.80 0.84 0.90 0.97 1.12 1.28 1.27 1.31 1.53 1.61 1.66 1.68 1.72 1.83 1.84 1.85 2.01 2.13 2.12 2.18 2.27 2.30 2.16
0.44 0.57 0.74 0.73 0.93 1.09 0.91 0.73 0.66 0.76 1.25 0.90 0.74 0.73 0.82 0.90 1.24 1.30 0.99 0.90 0.89 0.87 0.98 1.08 1.12 1.24 1.32 1.38 1.57 1.75 1.80 1.93 2.02 1.96 2.01 2.09 2.17 2.24 2.34 2.55 2.75 2.81 2.80 2.73
0.89 0.92 0.93 0.92 1.01 1.02 0.87 0.72 0.75 1.30 1.56 1.00 0.82 0.75 0.81 0.92 1.08 1.15 1.00 0.93 0.95 1.04 1.21 1.37 1.53 1.61 1.65 1.60 1.71 1.95 2.13 2.20 2.27 2.40 2.45 2.49 2.58 2.67 2.75 3.01 3.14 3.14 3.12 3.23
1.19 1.23 1.19 1.21 1.42 1.44 1.02 1.01 1.22 1.44 1.26 1.07 1.03 0.98 0.90 0.92 0.96 1.11 1.17 1.16 1.17 1.18 1.34 1.41 1.54 1.69 1.80 1.91 2.04 2.25 2.28 2.36 2.59 2.63 2.59 2.68 2.90 2.83 2.88 3.17 3.12 3.17 3.32 3.35
1.23 1.28 1.34 1.41 1.52 1.39 1.22 1.32 1.38 1.28 1.37 1.30 1.14 1.16 1.08 1.04 0.99 1.02 1.16 1.26 1.30 1.26 1.31 1.43 1.43 1.54 1.77 1.92 2.05 2.30 2.48 2.51 2.57 2.64 2.69 2.83 3.05 3.20 3.28 3.47 3.55 3.48 3.40 3.32
1.42 1.22 1.41 1.61 1.67 1.56 1.58 1.54 1.46 1.42 1.41 1.29 1.13 1.18 1.19 1.13 1.06 1.08 1.18 1.23 1.23 1.23 1.28 1.36 1.38 1.53 1.69 1.80 2.02 2.29 2.43 2.45 2.62 2.71 2.78 2.90 3.05 3.17 3.26 3.43 3.48 3.46 3.36 3.28
1.66 1.57 1.82 2.05 2.06 2.04 2.04 1.85 1.59 1.44 1.32 1.25 1.18 1.23 1.24 1.22 1.22 1.17 1.22 1.30 1.20 1.12 1.20 1.31 1.33 1.44 1.60 1.63 1.83 2.10 2.31 2.46 2.67 2.82 2.90 3.01 3.13 3.28 3.38 3.30 3.37 3.40 3.33 3.22
1.78 1.93 2.16 2.36 2.14 2.13 2.21 1.95 1.63 1.55 1.58 1.53 1.54 1.53 1.49 1.48 1.42 1.26 1.19 1.20 1.17 1.14 1.21 1.37 1.41 1.47 1.55 1.56 1.74 1.96 2.21 2.43 2.77 2.88 2.92 2.96 3.02 3.13 3.14 3.14 3.13 3.16 3.07 3.04